timestamp,wind_dir_avg,wind_spd_avg,wind_spd_max_dir,wind_spd_gust,battery_voltage,lat,long
2022-07-24 00:04:00+00:00,255.0,6.0,249.0,8.26,12.97,47.59359,-54.27349
2022-07-24 00:14:00+00:00,251.0,6.65,248.0,7.78,12.49,47.59359,-54.27349
2022-07-24 00:24:00+00:00,270.0,8.46,269.0,10.61,12.49,47.59359,-54.27349
2022-07-24 00:34:00+00:00,273.0,4.93,273.0,5.78,12.49,47.59359,-54.27349
2022-07-24 00:44:00+00:00,29.0,0.57,17.0,1.24,12.49,47.59359,-54.27349
2022-07-24 00:54:00+00:00,154.0,3.73,159.0,5.07,12.49,47.59359,-54.27349
2022-07-24 01:04:00+00:00,182.0,3.35,175.0,4.2,12.49,47.59359,-54.27349
2022-07-24 01:14:01+00:00,211.0,2.88,207.0,3.27,12.49,47.59359,-54.27349
2022-07-24 01:24:01+00:00,240.0,1.98,250.0,2.32,12.49,47.59359,-54.27349
2022-07-24 01:34:01+00:00,241.0,2.15,234.0,2.65,12.49,47.59359,-54.27349
2022-07-24 01:44:01+00:00,287.0,3.07,292.0,3.61,12.49,47.59359,-54.27349
2022-07-24 01:54:01+00:00,174.0,0.33,190.0,0.64,12.49,47.59359,-54.27349
2022-07-24 02:04:01+00:00,253.0,2.18,267.0,2.84,12.49,47.59359,-54.27349
2022-07-24 02:14:00+00:00,220.0,1.41,222.0,2.24,12.49,47.59359,-54.27349
2022-07-24 02:24:00+00:00,252.0,3.2,267.0,4.88,12.49,47.59359,-54.27349
2022-07-24 02:34:00+00:00,278.0,5.23,292.0,6.42,12.49,47.59359,-54.27349
2022-07-24 02:44:00+00:00,194.0,1.4,201.0,2.79,12.49,47.59359,-54.27349
2022-07-24 02:54:00+00:00,270.0,5.47,267.0,6.72,12.49,47.59359,-54.27349
2022-07-24 03:04:00+00:00,264.0,3.14,267.0,3.95,12.49,47.59359,-54.27349
2022-07-24 03:14:01+00:00,286.0,5.05,281.0,5.84,12.41,47.59359,-54.27349
2022-07-24 03:24:01+00:00,303.0,4.11,298.0,4.76,12.41,47.59359,-54.27349
2022-07-24 03:34:01+00:00,282.0,3.35,286.0,3.99,12.41,47.59359,-54.27349
2022-07-24 03:44:01+00:00,282.0,0.61,281.0,1.37,12.41,47.59359,-54.27349
2022-07-24 03:54:01+00:00,275.0,0.98,286.0,1.69,12.41,47.59359,-54.27349
2022-07-24 04:04:01+00:00,290.0,4.45,294.0,4.81,12.41,47.59359,-54.27349
2022-07-24 04:14:00+00:00,289.0,4.69,295.0,5.15,12.49,47.59359,-54.27349
2022-07-24 04:24:00+00:00,290.0,4.99,289.0,5.47,12.49,47.59359,-54.27349
2022-07-24 04:34:00+00:00,293.0,4.45,296.0,5.41,12.49,47.59359,-54.27349
2022-07-24 04:44:00+00:00,302.0,4.19,302.0,4.85,12.49,47.59359,-54.27349
2022-07-24 04:54:00+00:00,311.0,3.81,311.0,4.18,12.49,47.59359,-54.27349
2022-07-24 05:04:00+00:00,307.0,4.09,308.0,4.42,12.49,47.59359,-54.27349
2022-07-24 05:14:01+00:00,286.0,4.26,290.0,4.76,12.49,47.59359,-54.27349
2022-07-24 05:24:01+00:00,303.0,2.68,300.0,2.93,12.49,47.59359,-54.27349
2022-07-24 05:34:01+00:00,15.0,2.46,13.0,2.94,12.49,47.59359,-54.27349
2022-07-24 05:44:01+00:00,346.0,2.76,344.0,3.1,12.49,47.59359,-54.27349
2022-07-24 05:54:01+00:00,15.0,1.17,356.0,1.8,12.49,47.59359,-54.27349
2022-07-24 06:04:01+00:00,15.0,1.94,32.0,2.79,12.49,47.59359,-54.27349
2022-07-24 06:14:00+00:00,7.0,2.33,14.0,2.63,12.41,47.59359,-54.27349
2022-07-24 06:24:00+00:00,31.0,1.85,29.0,2.01,12.41,47.59359,-54.27349
2022-07-24 06:34:00+00:00,146.0,1.81,143.0,1.97,12.41,47.59359,-54.27349
2022-07-24 06:44:00+00:00,109.0,0.64,121.0,0.74,12.41,47.59359,-54.27349
2022-07-24 06:54:00+00:00,199.0,2.6,199.0,2.89,12.41,47.59359,-54.27349
2022-07-24 07:04:00+00:00,215.0,4.03,226.0,5.09,12.41,47.59359,-54.27349
2022-07-24 07:14:00+00:00,215.0,4.42,218.0,5.16,12.33,47.59359,-54.27349
2022-07-24 07:24:00+00:00,210.0,6.1,213.0,6.92,12.33,47.59359,-54.27349
2022-07-24 07:34:00+00:00,206.0,6.28,208.0,6.87,12.33,47.59359,-54.27349
2022-07-24 07:44:00+00:00,197.0,6.5,196.0,7.23,12.33,47.59359,-54.27349
2022-07-24 07:54:00+00:00,210.0,6.35,212.0,6.95,12.33,47.59359,-54.27349
2022-07-24 08:04:00+00:00,209.0,5.9,210.0,6.21,12.33,47.59359,-54.27349
2022-07-24 08:14:00+00:00,211.0,4.7,210.0,5.05,12.41,47.59359,-54.27349
2022-07-24 08:24:00+00:00,217.0,4.17,226.0,4.95,12.41,47.59359,-54.27349
2022-07-24 08:34:00+00:00,212.0,4.5,217.0,5.0,12.41,47.59359,-54.27349
2022-07-24 08:44:00+00:00,218.0,4.26,229.0,5.36,12.41,47.59359,-54.27349
2022-07-24 08:54:00+00:00,213.0,3.18,222.0,3.93,12.41,47.59359,-54.27349
2022-07-24 09:04:00+00:00,213.0,2.84,211.0,3.08,12.41,47.59359,-54.27349
2022-07-24 09:14:00+00:00,200.0,2.07,198.0,2.45,12.73,47.59359,-54.27349
2022-07-24 09:24:00+00:00,208.0,3.16,210.0,3.41,12.73,47.59359,-54.27349
2022-07-24 09:34:00+00:00,216.0,2.57,222.0,2.96,12.73,47.59359,-54.27349
2022-07-24 09:44:00+00:00,226.0,2.7,226.0,2.87,12.73,47.59359,-54.27349
2022-07-24 09:54:00+00:00,212.0,3.15,213.0,3.37,12.73,47.59359,-54.27349
2022-07-24 10:04:00+00:00,207.0,2.5,206.0,2.69,12.73,47.59359,-54.27349
2022-07-24 10:14:01+00:00,202.0,2.68,197.0,3.19,13.29,47.59359,-54.27349
2022-07-24 10:24:01+00:00,199.0,2.59,198.0,2.98,13.29,47.59359,-54.27349
2022-07-24 10:34:01+00:00,198.0,2.84,193.0,3.22,13.29,47.59359,-54.27349
2022-07-24 10:44:01+00:00,192.0,2.56,193.0,2.79,13.29,47.59359,-54.27349
2022-07-24 10:54:01+00:00,204.0,2.5,201.0,2.85,13.29,47.59359,-54.27349
2022-07-24 11:04:01+00:00,195.0,3.02,199.0,3.25,13.29,47.59359,-54.27349
2022-07-24 11:14:00+00:00,193.0,2.36,194.0,2.57,13.68,47.59359,-54.27349
2022-07-24 11:24:00+00:00,201.0,2.08,198.0,2.28,13.68,47.59359,-54.27349
2022-07-24 11:34:00+00:00,192.0,2.5,193.0,2.86,13.68,47.59359,-54.27349
2022-07-24 11:44:00+00:00,200.0,2.72,199.0,3.05,13.68,47.59359,-54.27349
2022-07-24 11:54:00+00:00,192.0,3.0,192.0,3.25,13.68,47.59359,-54.27349
2022-07-24 12:04:00+00:00,197.0,3.39,200.0,3.6,13.68,47.59359,-54.27349
2022-07-24 12:14:01+00:00,194.0,3.23,195.0,3.47,13.84,47.59359,-54.27349
2022-07-24 12:24:01+00:00,200.0,2.73,202.0,2.93,13.84,47.59359,-54.27349
2022-07-24 12:34:01+00:00,213.0,2.49,212.0,2.7,13.84,47.59359,-54.27349
2022-07-24 12:44:01+00:00,212.0,2.16,212.0,2.33,13.84,47.59359,-54.27349
2022-07-24 12:54:01+00:00,206.0,3.47,205.0,3.69,13.84,47.59359,-54.27349
2022-07-24 13:04:01+00:00,211.0,3.8,213.0,4.12,13.84,47.59359,-54.27349
2022-07-24 13:14:00+00:00,210.0,4.26,211.0,4.51,14.16,47.59359,-54.27349
2022-07-24 13:24:00+00:00,210.0,5.74,212.0,6.56,14.16,47.59359,-54.27349
2022-07-24 13:34:00+00:00,203.0,5.21,208.0,5.91,14.16,47.59359,-54.27349
2022-07-24 13:44:00+00:00,200.0,7.1,203.0,7.41,14.16,47.59359,-54.27349
2022-07-24 13:54:00+00:00,207.0,6.99,206.0,7.78,14.16,47.59359,-54.27349
2022-07-24 14:04:00+00:00,190.0,5.77,193.0,6.24,14.16,47.59359,-54.27349
2022-07-24 14:14:00+00:00,197.0,5.7,196.0,6.06,14.32,47.59359,-54.27349
2022-07-24 14:24:00+00:00,199.0,4.89,198.0,5.24,14.32,47.59359,-54.27349
2022-07-24 14:34:00+00:00,191.0,4.78,193.0,5.32,14.32,47.59359,-54.27349
2022-07-24 14:44:00+00:00,201.0,5.7,200.0,6.38,14.32,47.59359,-54.27349
2022-07-24 14:54:00+00:00,210.0,6.31,212.0,7.44,14.32,47.59359,-54.27349
2022-07-24 15:04:00+00:00,214.0,7.09,215.0,8.51,14.32,47.59359,-54.27349
2022-07-24 15:14:00+00:00,224.0,8.13,221.0,9.37,14.32,47.59359,-54.27349
2022-07-24 15:24:00+00:00,213.0,8.44,212.0,9.57,14.32,47.59359,-54.27349
2022-07-24 15:34:00+00:00,210.0,9.19,208.0,10.3,14.32,47.59359,-54.27349
2022-07-24 15:44:00+00:00,217.0,8.75,215.0,9.69,14.32,47.59359,-54.27349
2022-07-24 15:54:00+00:00,215.0,8.72,216.0,9.84,14.32,47.59359,-54.27349
2022-07-24 16:04:00+00:00,208.0,8.7,208.0,9.83,14.32,47.59359,-54.27349
2022-07-24 16:14:00+00:00,209.0,8.71,207.0,9.68,14.24,47.59359,-54.27349
2022-07-24 16:24:00+00:00,212.0,9.54,213.0,10.4,14.24,47.59359,-54.27349
2022-07-24 16:34:00+00:00,204.0,8.93,206.0,9.89,14.24,47.59359,-54.27349
2022-07-24 16:44:00+00:00,201.0,8.64,202.0,9.74,14.24,47.59359,-54.27349
2022-07-24 16:54:00+00:00,208.0,8.68,212.0,9.68,14.24,47.59359,-54.27349
2022-07-24 17:04:00+00:00,206.0,9.7,207.0,10.59,14.24,47.59359,-54.27349
2022-07-24 17:14:00+00:00,203.0,9.99,202.0,11.11,14.16,47.59359,-54.27349
2022-07-24 17:24:00+00:00,203.0,10.03,202.0,10.74,14.16,47.59359,-54.27349
2022-07-24 17:34:00+00:00,199.0,9.61,198.0,10.42,14.16,47.59359,-54.27349
2022-07-24 17:44:00+00:00,208.0,9.89,207.0,10.95,14.16,47.59359,-54.27349
2022-07-24 17:54:00+00:00,210.0,11.01,212.0,11.98,14.16,47.59359,-54.27349
2022-07-24 18:04:00+00:00,209.0,11.18,209.0,12.61,14.16,47.59359,-54.27349
2022-07-24 18:14:00+00:00,210.0,10.93,214.0,12.12,13.84,47.59359,-54.27349
2022-07-24 18:24:00+00:00,211.0,11.4,210.0,12.88,13.84,47.59359,-54.27349
2022-07-24 18:34:00+00:00,212.0,11.01,212.0,11.95,13.84,47.59359,-54.27349
2022-07-24 18:44:00+00:00,212.0,9.97,211.0,11.28,13.84,47.59359,-54.27349
2022-07-24 18:54:00+00:00,213.0,9.71,213.0,11.25,13.84,47.59359,-54.27349
2022-07-24 19:04:00+00:00,214.0,10.38,217.0,11.76,13.84,47.59359,-54.27349
2022-07-24 19:14:01+00:00,213.0,10.62,214.0,11.52,13.68,47.59359,-54.27349
2022-07-24 19:24:01+00:00,211.0,10.27,213.0,11.7,13.68,47.59359,-54.27349
2022-07-24 19:34:01+00:00,209.0,9.85,206.0,11.54,13.68,47.59359,-54.27349
2022-07-24 19:44:01+00:00,216.0,10.41,216.0,11.5,13.68,47.59359,-54.27349
2022-07-24 19:54:01+00:00,212.0,8.99,208.0,10.3,13.68,47.59359,-54.27349
2022-07-24 20:04:01+00:00,210.0,10.23,211.0,11.2,13.68,47.59359,-54.27349
2022-07-24 20:14:01+00:00,210.0,9.66,208.0,10.88,13.68,47.59359,-54.27349
2022-07-24 20:24:01+00:00,208.0,9.54,210.0,10.96,13.68,47.59359,-54.27349
2022-07-24 20:34:01+00:00,208.0,9.78,210.0,11.21,13.68,47.59359,-54.27349
2022-07-24 20:44:01+00:00,213.0,9.7,210.0,11.26,13.68,47.59359,-54.27349
2022-07-24 20:54:01+00:00,208.0,9.48,205.0,10.41,13.68,47.59359,-54.27349
2022-07-24 21:04:01+00:00,209.0,7.69,206.0,8.42,13.68,47.59359,-54.27349
2022-07-24 21:14:01+00:00,202.0,8.38,207.0,9.68,13.6,47.59359,-54.27349
2022-07-24 21:24:01+00:00,207.0,9.38,208.0,10.41,13.6,47.59359,-54.27349
2022-07-24 21:34:01+00:00,210.0,8.85,210.0,9.9,13.6,47.59359,-54.27349
2022-07-24 21:44:01+00:00,211.0,9.28,212.0,10.51,13.6,47.59359,-54.27349
2022-07-24 21:54:01+00:00,212.0,10.06,211.0,11.35,13.6,47.59359,-54.27349
2022-07-24 22:04:01+00:00,211.0,9.65,215.0,11.05,13.6,47.59359,-54.27349
2022-07-24 22:14:00+00:00,211.0,9.19,217.0,10.24,13.29,47.59359,-54.27349
2022-07-24 22:24:00+00:00,214.0,7.91,211.0,9.13,13.29,47.59359,-54.27349
2022-07-24 22:34:00+00:00,212.0,7.84,214.0,9.3,13.29,47.59359,-54.27349
2022-07-24 22:44:00+00:00,212.0,7.5,212.0,8.42,13.29,47.59359,-54.27349
2022-07-24 22:54:00+00:00,216.0,8.92,218.0,9.99,13.29,47.59359,-54.27349
2022-07-24 23:04:00+00:00,216.0,8.4,223.0,10.09,13.29,47.59359,-54.27349
2022-07-24 23:14:01+00:00,216.0,9.13,226.0,10.78,12.89,47.59359,-54.27349
2022-07-24 23:24:01+00:00,216.0,9.06,216.0,10.08,12.89,47.59359,-54.27349
2022-07-24 23:34:01+00:00,216.0,9.4,217.0,10.66,12.89,47.59359,-54.27349
2022-07-24 23:44:01+00:00,217.0,8.97,219.0,10.0,12.89,47.59359,-54.27349
2022-07-24 23:54:01+00:00,210.0,8.33,205.0,10.89,12.89,47.59359,-54.27349
